date,time,SUV Intensity [MED/Hr],UV Index,Daily total [MED],Since Last [MED]
08/05/2023,00:01:31,-0.000,0.0,0.0,0.0
08/05/2023,00:02:30,-0.000,0.0,0.0,0.0
08/05/2023,00:03:30,0.000,0.0,0.0,0.0
08/05/2023,00:04:31,0.001,0.0,0.0,0.0
08/05/2023,00:05:31,0.000,0.0,0.0,0.0
08/05/2023,00:06:31,0.000,0.0,0.0,0.0
08/05/2023,00:07:31,0.000,0.0,0.0,0.0
08/05/2023,00:08:31,0.000,0.0,0.0,0.0
08/05/2023,00:09:30,0.000,0.0,0.0,0.0
08/05/2023,00:10:31,0.000,0.0,0.0,0.0
08/05/2023,00:11:31,0.000,0.0,0.0,0.0
08/05/2023,00:12:30,0.000,0.0,0.0,0.0
08/05/2023,00:13:31,0.000,0.0,0.0,0.0
08/05/2023,00:14:31,0.000,0.0,0.0,0.0
08/05/2023,00:15:30,0.001,0.0,0.0,0.0
08/05/2023,00:16:30,-0.001,0.0,0.0,0.0
08/05/2023,00:17:31,0.001,0.0,0.0,0.0
08/05/2023,00:18:31,0.000,0.0,0.0,0.0
08/05/2023,00:19:31,-0.001,0.0,0.0,0.0
08/05/2023,00:20:31,0.001,0.0,0.0,0.0
08/05/2023,00:21:31,0.000,0.0,0.0,0.0
08/05/2023,00:22:31,-0.000,0.0,0.0,0.0
08/05/2023,00:23:31,0.000,0.0,0.0,0.0
08/05/2023,00:24:31,0.000,0.0,0.0,0.0
08/05/2023,00:25:31,0.000,0.0,0.0,0.0
08/05/2023,00:26:32,0.000,0.0,0.0,0.0
08/05/2023,00:27:31,0.000,0.0,0.0,0.0
08/05/2023,00:28:31,0.000,0.0,0.0,0.0
08/05/2023,00:29:31,-0.000,0.0,0.0,0.0
08/05/2023,00:30:30,0.000,0.0,0.0,0.0
08/05/2023,00:31:30,0.000,0.0,0.0,0.0
08/05/2023,00:32:31,0.000,0.0,0.0,0.0
08/05/2023,00:33:31,0.001,0.0,0.0,0.0
08/05/2023,00:34:30,0.000,0.0,0.0,0.0
08/05/2023,00:35:32,-0.000,0.0,0.0,0.0
08/05/2023,00:36:32,-0.001,0.0,0.0,0.0
08/05/2023,00:37:31,0.000,0.0,0.0,0.0
08/05/2023,00:38:31,0.000,0.0,0.0,0.0
08/05/2023,00:39:31,0.000,0.0,0.0,0.0
08/05/2023,00:40:31,0.001,0.0,0.0,0.0
08/05/2023,00:41:31,0.001,0.0,0.0,0.0
08/05/2023,00:42:31,0.000,0.0,0.0,0.0
08/05/2023,00:43:30,-0.001,0.0,0.0,0.0
08/05/2023,00:44:31,-0.001,0.0,0.0,0.0
08/05/2023,00:45:31,0.001,0.0,0.0,0.0
08/05/2023,00:46:31,-0.000,0.0,0.0,0.0
08/05/2023,00:47:31,0.001,0.0,0.0,0.0
08/05/2023,00:48:31,0.000,0.0,0.0,0.0
08/05/2023,00:49:31,0.000,0.0,0.0,0.0
08/05/2023,00:50:31,0.000,0.0,0.0,0.0
08/05/2023,00:51:31,0.001,0.0,0.0,0.0
08/05/2023,00:52:31,0.001,0.0,0.0,0.0
08/05/2023,00:53:31,0.000,0.0,0.0,0.0
08/05/2023,00:54:30,0.000,0.0,0.0,0.0
08/05/2023,00:55:30,0.000,0.0,0.0,0.0
08/05/2023,00:56:31,-0.001,0.0,0.0,0.0
08/05/2023,00:57:31,0.001,0.0,0.0,0.0
08/05/2023,00:58:31,-0.000,0.0,0.0,0.0
08/05/2023,00:59:31,0.000,0.0,0.0,0.0
08/05/2023,01:00:30,-0.000,0.0,0.0,0.0
08/05/2023,01:01:31,0.001,0.0,0.0,0.0
08/05/2023,01:02:31,0.000,0.0,0.0,0.0
08/05/2023,01:03:31,0.000,0.0,0.0,0.0
08/05/2023,01:04:31,0.000,0.0,0.0,0.0
08/05/2023,01:05:30,0.000,0.0,0.0,0.0
08/05/2023,01:06:30,0.001,0.0,0.0,0.0
08/05/2023,01:07:31,0.000,0.0,0.0,0.0
08/05/2023,01:08:31,0.000,0.0,0.0,0.0
08/05/2023,01:09:30,0.000,0.0,0.0,0.0
08/05/2023,01:10:31,0.001,0.0,0.0,0.0
08/05/2023,01:11:31,0.000,0.0,0.0,0.0
08/05/2023,01:12:31,0.001,0.0,0.0,0.0
08/05/2023,01:13:30,0.001,0.0,0.0,0.0
08/05/2023,01:14:31,0.001,0.0,0.0,0.0
08/05/2023,01:15:30,0.000,0.0,0.0,0.0
08/05/2023,01:16:33,-0.001,0.0,0.0,0.0
08/05/2023,01:17:31,0.000,0.0,0.0,0.0
08/05/2023,01:18:31,0.000,0.0,0.0,0.0
08/05/2023,01:19:31,-0.001,0.0,0.0,0.0
08/05/2023,01:20:31,0.000,0.0,0.0,0.0
08/05/2023,01:21:31,-0.001,0.0,0.0,0.0
08/05/2023,01:22:31,-0.001,0.0,0.0,0.0
08/05/2023,01:23:31,0.000,0.0,0.0,0.0
08/05/2023,01:24:31,0.000,0.0,0.0,0.0
08/05/2023,01:25:31,0.001,0.0,0.0,0.0
08/05/2023,01:26:31,0.000,0.0,0.0,0.0
08/05/2023,01:27:31,0.000,0.0,0.0,0.0
08/05/2023,01:28:31,0.001,0.0,0.0,0.0
08/05/2023,01:29:31,0.000,0.0,0.0,0.0
08/05/2023,01:30:31,0.000,0.0,0.0,0.0
08/05/2023,01:31:31,0.000,0.0,0.0,0.0
08/05/2023,01:32:31,0.001,0.0,0.0,0.0
08/05/2023,01:33:30,0.000,0.0,0.0,0.0
08/05/2023,01:34:31,-0.000,0.0,0.0,0.0
08/05/2023,01:35:31,0.002,0.0,0.0,0.0
08/05/2023,01:36:30,-0.001,0.0,0.0,0.0
08/05/2023,01:37:31,0.000,0.0,0.0,0.0
08/05/2023,01:38:31,0.000,0.0,0.0,0.0
08/05/2023,01:39:32,0.000,0.0,0.0,0.0
08/05/2023,01:40:31,0.000,0.0,0.0,0.0
08/05/2023,01:41:30,0.002,0.0,0.0,0.0
08/05/2023,01:42:30,0.001,0.0,0.0,0.0
08/05/2023,01:43:31,0.000,0.0,0.0,0.0
08/05/2023,01:44:31,-0.000,0.0,0.0,0.0
08/05/2023,01:45:31,0.000,0.0,0.0,0.0
08/05/2023,01:46:31,0.001,0.0,0.0,0.0
08/05/2023,01:47:31,0.000,0.0,0.0,0.0
08/05/2023,01:48:31,0.001,0.0,0.0,0.0
08/05/2023,01:49:31,0.001,0.0,0.0,0.0
08/05/2023,01:50:30,0.000,0.0,0.0,0.0
08/05/2023,01:51:31,0.001,0.0,0.0,0.0
08/05/2023,01:52:31,0.000,0.0,0.0,0.0
08/05/2023,01:53:30,0.001,0.0,0.0,0.0
08/05/2023,01:54:31,0.000,0.0,0.0,0.0
08/05/2023,01:55:31,-0.001,0.0,0.0,0.0
08/05/2023,01:56:31,0.001,0.0,0.0,0.0
08/05/2023,01:57:31,-0.000,0.0,0.0,0.0
08/05/2023,01:58:30,0.001,0.0,0.0,0.0
08/05/2023,01:59:31,0.001,0.0,0.0,0.0
08/05/2023,02:00:31,0.001,0.0,0.0,0.0
08/05/2023,02:01:31,0.001,0.0,0.0,0.0
08/05/2023,02:02:31,0.001,0.0,0.0,0.0
08/05/2023,02:03:31,0.000,0.0,0.0,0.0
08/05/2023,02:04:31,0.002,0.0,0.0,0.0
08/05/2023,02:05:31,0.000,0.0,0.0,0.0
08/05/2023,02:06:30,0.001,0.0,0.0,0.0
08/05/2023,02:07:31,0.001,0.0,0.0,0.0
08/05/2023,02:08:31,0.001,0.0,0.0,0.0
08/05/2023,02:09:31,0.001,0.0,0.0,0.0
08/05/2023,02:10:31,0.001,0.0,0.0,0.0
08/05/2023,02:11:31,0.001,0.0,0.0,0.0
08/05/2023,02:12:31,0.000,0.0,0.0,0.0
08/05/2023,02:13:31,0.002,0.0,0.0,0.0
08/05/2023,02:14:35,0.001,0.0,0.0,0.0
08/05/2023,02:15:31,0.001,0.0,0.0,0.0
08/05/2023,02:16:31,0.001,0.0,0.0,0.0
08/05/2023,02:17:31,0.001,0.0,0.0,0.0
08/05/2023,02:18:31,0.001,0.0,0.0,0.0
08/05/2023,02:19:31,0.000,0.0,0.0,0.0
08/05/2023,02:20:31,0.001,0.0,0.0,0.0
08/05/2023,02:21:31,0.001,0.0,0.0,0.0
08/05/2023,02:22:31,0.001,0.0,0.0,0.0
08/05/2023,02:23:31,0.000,0.0,0.0,0.0
08/05/2023,02:24:30,0.001,0.0,0.0,0.0
08/05/2023,02:25:31,0.000,0.0,0.0,0.0
08/05/2023,02:26:31,0.001,0.0,0.0,0.0
08/05/2023,02:27:31,-0.000,0.0,0.0,0.0
08/05/2023,02:28:31,0.002,0.0,0.0,0.0
08/05/2023,02:29:31,0.001,0.0,0.0,0.0
08/05/2023,02:30:31,0.001,0.0,0.0,0.0
08/05/2023,02:31:31,0.001,0.0,0.0,0.0
08/05/2023,02:32:31,0.002,0.0,0.0,0.0
08/05/2023,02:33:31,0.002,0.0,0.0,0.0
08/05/2023,02:34:31,0.001,0.0,0.0,0.0
08/05/2023,02:35:31,0.001,0.0,0.0,0.0
08/05/2023,02:36:31,0.001,0.0,0.0,0.0
08/05/2023,02:37:31,0.001,0.0,0.0,0.0
08/05/2023,02:38:31,0.001,0.0,0.0,0.0
08/05/2023,02:39:31,0.002,0.0,0.0,0.0
08/05/2023,02:40:31,0.001,0.0,0.0,0.0
08/05/2023,02:41:31,-0.000,0.0,0.0,0.0
08/05/2023,02:42:31,0.001,0.0,0.0,0.0
08/05/2023,02:43:32,0.000,0.0,0.0,0.0
08/05/2023,02:44:31,0.001,0.0,0.0,0.0
08/05/2023,02:45:31,0.001,0.0,0.0,0.0
08/05/2023,02:46:31,0.001,0.0,0.0,0.0
08/05/2023,02:47:31,0.001,0.0,0.0,0.0
08/05/2023,02:48:31,0.001,0.0,0.0,0.0
08/05/2023,02:49:31,0.001,0.0,0.0,0.0
08/05/2023,02:50:31,0.001,0.0,0.0,0.0
08/05/2023,02:51:30,0.002,0.0,0.0,0.0
08/05/2023,02:52:53,0.002,0.0,0.0,0.0
08/05/2023,02:54:32,0.001,0.0,0.0,0.0
08/05/2023,02:55:31,0.001,0.0,0.0,0.0
08/05/2023,02:56:31,0.001,0.0,0.0,0.0
08/05/2023,02:57:32,0.000,0.0,0.0,0.0
08/05/2023,02:58:31,0.001,0.0,0.0,0.0
08/05/2023,02:59:31,0.001,0.0,0.0,0.0
08/05/2023,03:00:31,0.001,0.0,0.0,0.0
08/05/2023,03:01:31,0.002,0.0,0.0,0.0
08/05/2023,03:02:31,0.000,0.0,0.0,0.0
08/05/2023,03:03:31,0.001,0.0,0.0,0.0
08/05/2023,03:04:31,0.000,0.0,0.0,0.0
08/05/2023,03:05:31,0.001,0.0,0.0,0.0
08/05/2023,03:06:31,0.000,0.0,0.0,0.0
08/05/2023,03:07:31,0.000,0.0,0.0,0.0
08/05/2023,03:08:31,0.001,0.0,0.0,0.0
08/05/2023,03:09:31,0.001,0.0,0.0,0.0
08/05/2023,03:10:31,0.000,0.0,0.0,0.0
08/05/2023,03:11:31,0.001,0.0,0.0,0.0
08/05/2023,03:12:31,0.001,0.0,0.0,0.0
08/05/2023,03:13:31,0.001,0.0,0.0,0.0
08/05/2023,03:14:31,-0.000,0.0,0.0,0.0
08/05/2023,03:15:31,0.000,0.0,0.0,0.0
08/05/2023,03:16:31,0.001,0.0,0.0,0.0
08/05/2023,03:17:31,0.001,0.0,0.0,0.0
08/05/2023,03:18:31,0.001,0.0,0.0,0.0
08/05/2023,03:19:31,0.000,0.0,0.0,0.0
08/05/2023,03:20:31,0.002,0.0,0.0,0.0
08/05/2023,03:21:31,0.001,0.0,0.0,0.0
08/05/2023,03:22:31,-0.000,0.0,0.0,0.0
08/05/2023,03:23:31,0.001,0.0,0.0,0.0
08/05/2023,03:24:31,-0.000,0.0,0.0,0.0
08/05/2023,03:25:30,0.001,0.0,0.0,0.0
08/05/2023,03:26:31,0.001,0.0,0.0,0.0
08/05/2023,03:27:31,0.001,0.0,0.0,0.0
08/05/2023,03:28:31,0.002,0.0,0.0,0.0
08/05/2023,03:29:31,0.001,0.0,0.0,0.0
08/05/2023,03:30:31,0.001,0.0,0.0,0.0
08/05/2023,03:31:31,0.001,0.0,0.0,0.0
08/05/2023,03:32:31,0.001,0.0,0.0,0.0
08/05/2023,03:33:31,0.001,0.0,0.0,0.0
08/05/2023,03:34:31,0.001,0.0,0.0,0.0
08/05/2023,03:35:31,0.000,0.0,0.0,0.0
08/05/2023,03:36:31,-0.000,0.0,0.0,0.0
08/05/2023,03:37:31,0.000,0.0,0.0,0.0
08/05/2023,03:38:31,0.000,0.0,0.0,0.0
08/05/2023,03:39:31,-0.000,0.0,0.0,0.0
08/05/2023,03:40:32,0.001,0.0,0.0,0.0
08/05/2023,03:41:31,0.001,0.0,0.0,0.0
08/05/2023,03:42:31,0.001,0.0,0.0,0.0
08/05/2023,03:43:31,0.000,0.0,0.0,0.0
08/05/2023,03:44:31,0.000,0.0,0.0,0.0
08/05/2023,03:45:31,0.001,0.0,0.0,0.0
08/05/2023,03:46:31,0.001,0.0,0.0,0.0
08/05/2023,03:47:31,0.001,0.0,0.0,0.0
08/05/2023,03:48:31,0.002,0.0,0.0,0.0
08/05/2023,03:49:31,0.000,0.0,0.0,0.0
08/05/2023,03:50:31,0.001,0.0,0.0,0.0
08/05/2023,03:51:31,0.000,0.0,0.0,0.0
08/05/2023,03:52:31,0.000,0.0,0.0,0.0
08/05/2023,03:53:31,0.001,0.0,0.0,0.0
08/05/2023,03:54:31,0.001,0.0,0.0,0.0
08/05/2023,03:55:31,0.001,0.0,0.0,0.0
08/05/2023,03:56:31,-0.000,0.0,0.0,0.0
08/05/2023,03:57:31,0.001,0.0,0.0,0.0
08/05/2023,03:58:31,0.001,0.0,0.0,0.0
08/05/2023,03:59:31,0.001,0.0,0.0,0.0
08/05/2023,04:00:31,0.000,0.0,0.0,0.0
08/05/2023,04:01:31,0.001,0.0,0.0,0.0
08/05/2023,04:02:31,0.001,0.0,0.0,0.0
08/05/2023,04:03:31,-0.000,0.0,0.0,0.0
08/05/2023,04:04:31,0.002,0.0,0.0,0.0
08/05/2023,04:05:31,0.001,0.0,0.0,0.0
08/05/2023,04:06:31,0.001,0.0,0.0,0.0
08/05/2023,04:07:31,0.001,0.0,0.0,0.0
08/05/2023,04:08:31,0.001,0.0,0.0,0.0
08/05/2023,04:09:31,0.000,0.0,0.0,0.0
08/05/2023,04:10:31,0.001,0.0,0.0,0.0
08/05/2023,04:11:32,0.001,0.0,0.0,0.0
08/05/2023,04:12:32,0.001,0.0,0.0,0.0
08/05/2023,04:13:32,0.000,0.0,0.0,0.0
08/05/2023,04:14:31,0.001,0.0,0.0,0.0
08/05/2023,04:15:32,0.002,0.0,0.0,0.0
08/05/2023,04:16:31,0.001,0.0,0.0,0.0
08/05/2023,04:17:31,0.001,0.0,0.0,0.0
08/05/2023,04:18:31,0.000,0.0,0.0,0.0
08/05/2023,04:19:31,0.001,0.0,0.0,0.0
08/05/2023,04:20:54,0.001,0.0,0.0,0.0
08/05/2023,04:22:32,0.002,0.0,0.0,0.0
08/05/2023,04:23:31,0.002,0.0,0.0,0.0
08/05/2023,04:24:31,0.002,0.0,0.0,0.0
08/05/2023,04:25:31,0.001,0.0,0.0,0.0
08/05/2023,04:26:31,0.002,0.0,0.0,0.0
08/05/2023,04:27:31,0.002,0.0,0.0,0.0
08/05/2023,04:28:31,0.002,0.0,0.0,0.0
08/05/2023,04:29:31,0.002,0.0,0.0,0.0
08/05/2023,04:30:32,0.003,0.0,0.0,0.0
08/05/2023,04:31:32,0.003,0.0,0.0,0.0
08/05/2023,04:32:32,0.003,0.0,0.0,0.0
08/05/2023,04:33:31,0.003,0.0,0.0,0.0
08/05/2023,04:34:31,0.003,0.0,0.0,0.0
08/05/2023,04:35:32,0.003,0.0,0.0,0.0
08/05/2023,04:36:31,0.003,0.0,0.0,0.0
08/05/2023,04:37:31,0.003,0.0,0.0,0.0
08/05/2023,04:38:31,0.003,0.0,0.0,0.0
08/05/2023,04:39:31,0.004,0.0,0.0,0.0
08/05/2023,04:40:31,0.004,0.0,0.0,0.0
08/05/2023,04:41:31,0.004,0.0,0.0,0.0
08/05/2023,04:42:31,0.005,0.0,0.0,0.0
08/05/2023,04:43:31,0.004,0.0,0.0,0.0
08/05/2023,04:44:31,0.005,0.0,0.0,0.0
08/05/2023,04:45:31,0.006,0.0,0.0,0.0
08/05/2023,04:46:31,0.005,0.0,0.0,0.0
08/05/2023,04:47:31,0.006,0.0,0.0,0.0
08/05/2023,04:48:31,0.006,0.0,0.0,0.0
08/05/2023,04:49:31,0.006,0.0,0.0,0.0
08/05/2023,04:50:31,0.005,0.0,0.0,0.0
08/05/2023,04:51:31,0.005,0.0,0.0,0.0
08/05/2023,04:52:31,0.007,0.0,0.0,0.0
08/05/2023,04:53:31,0.007,0.0,0.0,0.0
08/05/2023,04:54:30,0.008,0.0,0.0,0.0
08/05/2023,04:55:31,0.008,0.0,0.001,0.001
08/05/2023,04:56:31,0.008,0.0,0.001,0.0
08/05/2023,04:57:32,0.008,0.0,0.001,0.0
08/05/2023,04:58:31,0.008,0.0,0.001,0.0
08/05/2023,04:59:31,0.010,0.0,0.001,0.0
08/05/2023,05:00:31,0.010,0.0,0.001,0.0
08/05/2023,05:01:31,0.010,0.0,0.001,0.0
08/05/2023,05:02:31,0.010,0.0,0.002,0.001
08/05/2023,05:03:31,0.011,0.0,0.002,0.0
08/05/2023,05:04:31,0.011,0.0,0.002,0.0
08/05/2023,05:05:31,0.011,0.0,0.002,0.0
08/05/2023,05:06:31,0.012,0.0,0.002,0.0
08/05/2023,05:07:31,0.013,0.0,0.003,0.001
08/05/2023,05:08:31,0.014,0.0,0.003,0.0
08/05/2023,05:09:31,0.014,0.0,0.003,0.0
08/05/2023,05:10:31,0.015,0.0,0.003,0.0
08/05/2023,05:11:32,0.015,0.0,0.004,0.001
08/05/2023,05:12:32,0.016,0.0,0.004,0.0
08/05/2023,05:13:31,0.017,0.0,0.004,0.0
08/05/2023,05:14:31,0.017,0.0,0.004,0.0
08/05/2023,05:15:31,0.019,0.0,0.005,0.001
08/05/2023,05:16:31,0.019,0.0,0.005,0.0
08/05/2023,05:17:31,0.020,0.0,0.005,0.0
08/05/2023,05:18:31,0.020,0.0,0.006,0.001
08/05/2023,05:19:31,0.021,0.0,0.006,0.0
08/05/2023,05:20:31,0.022,0.0,0.006,0.0
08/05/2023,05:21:31,0.022,0.0,0.007,0.001
08/05/2023,05:22:31,0.024,0.0,0.007,0.0
08/05/2023,05:23:31,0.024,0.0,0.007,0.0
08/05/2023,05:24:32,0.025,0.0,0.008,0.001
08/05/2023,05:25:31,0.027,0.0,0.008,0.0
08/05/2023,05:26:31,0.027,0.0,0.009,0.001
08/05/2023,05:27:31,0.029,0.0,0.009,0.0
08/05/2023,05:28:32,0.029,0.0,0.01,0.001
08/05/2023,05:29:31,0.030,0.0,0.01,0.0
08/05/2023,05:30:31,0.031,0.0,0.011,0.001
08/05/2023,05:31:31,0.032,0.0,0.011,0.0
08/05/2023,05:32:32,0.032,0.0,0.012,0.001
08/05/2023,05:33:31,0.033,0.0,0.012,0.0
08/05/2023,05:34:31,0.034,0.0,0.013,0.001
08/05/2023,05:35:31,0.035,0.0,0.013,0.0
08/05/2023,05:36:31,0.035,0.0,0.014,0.001
08/05/2023,05:37:31,0.035,0.0,0.015,0.001
08/05/2023,05:38:32,0.035,0.0,0.015,0.0
08/05/2023,05:39:32,0.037,0.0,0.016,0.001
08/05/2023,05:40:32,0.036,0.0,0.016,0.0
08/05/2023,05:41:31,0.038,0.0,0.017,0.001
08/05/2023,05:42:31,0.039,0.0,0.018,0.001
08/05/2023,05:43:31,0.039,0.0,0.018,0.0
08/05/2023,05:44:32,0.040,0.0,0.019,0.001
08/05/2023,05:45:32,0.040,0.0,0.02,0.001
08/05/2023,05:46:31,0.041,0.0,0.02,0.0
08/05/2023,05:47:31,0.043,0.0,0.021,0.001
08/05/2023,05:48:31,0.044,0.0,0.022,0.001
08/05/2023,05:49:31,0.045,0.0,0.022,0.0
08/05/2023,05:50:31,0.046,0.0,0.023,0.001
08/05/2023,05:51:31,0.048,0.0,0.024,0.001
08/05/2023,05:52:31,0.049,0.0,0.025,0.001
08/05/2023,05:53:31,0.050,0.0,0.026,0.001
08/05/2023,05:54:31,0.052,0.0,0.026,0.0
08/05/2023,05:55:32,0.053,0.0,0.027,0.001
08/05/2023,05:56:31,0.055,0.0,0.028,0.001
08/05/2023,05:57:31,0.057,0.0,0.029,0.001
08/05/2023,05:58:31,0.060,0.0,0.03,0.001
08/05/2023,05:59:31,0.061,0.0,0.031,0.001
08/05/2023,06:00:31,0.063,0.0,0.032,0.001
08/05/2023,06:01:31,0.064,0.0,0.033,0.001
08/05/2023,06:02:31,0.065,0.0,0.034,0.001
08/05/2023,06:03:31,0.068,0.0,0.035,0.001
08/05/2023,06:04:32,0.069,0.0,0.037,0.002
08/05/2023,06:05:32,0.070,0.0,0.038,0.001
08/05/2023,06:06:31,0.072,0.0,0.039,0.001
08/05/2023,06:07:31,0.071,0.0,0.04,0.001
08/05/2023,06:08:31,0.073,0.0,0.041,0.001
08/05/2023,06:09:31,0.074,0.0,0.043,0.002
08/05/2023,06:10:32,0.074,0.0,0.044,0.001
08/05/2023,06:11:31,0.074,0.0,0.045,0.001
08/05/2023,06:12:31,0.074,0.0,0.046,0.001
08/05/2023,06:13:32,0.075,0.0,0.047,0.001
08/05/2023,06:14:31,0.074,0.0,0.049,0.002
08/05/2023,06:15:32,0.074,0.0,0.05,0.001
08/05/2023,06:16:32,0.074,0.0,0.051,0.001
08/05/2023,06:17:31,0.073,0.0,0.052,0.001
08/05/2023,06:18:31,0.073,0.0,0.054,0.002
08/05/2023,06:19:31,0.073,0.0,0.055,0.001
08/05/2023,06:20:32,0.072,0.0,0.056,0.001
08/05/2023,06:21:31,0.072,0.0,0.057,0.001
08/05/2023,06:22:31,0.071,0.0,0.058,0.001
08/05/2023,06:23:31,0.071,0.0,0.06,0.002
08/05/2023,06:24:31,0.072,0.0,0.061,0.001
08/05/2023,06:25:31,0.071,0.0,0.062,0.001
08/05/2023,06:26:32,0.072,0.0,0.063,0.001
08/05/2023,06:27:32,0.071,0.0,0.064,0.001
08/05/2023,06:28:32,0.071,0.0,0.066,0.002
08/05/2023,06:29:32,0.072,0.0,0.067,0.001
08/05/2023,06:30:31,0.074,0.0,0.068,0.001
08/05/2023,06:31:31,0.074,0.0,0.069,0.001
08/05/2023,06:32:32,0.076,0.0,0.07,0.001
08/05/2023,06:33:31,0.079,0.0,0.072,0.002
08/05/2023,06:34:31,0.081,0.0,0.073,0.001
08/05/2023,06:35:32,0.082,0.0,0.074,0.001
08/05/2023,06:36:32,0.086,0.0,0.076,0.002
08/05/2023,06:37:32,0.089,0.0,0.077,0.001
08/05/2023,06:38:31,0.089,0.0,0.079,0.002
08/05/2023,06:39:32,0.092,0.0,0.08,0.001
08/05/2023,06:40:32,0.094,0.0,0.082,0.002
08/05/2023,06:41:31,0.094,0.0,0.083,0.001
08/05/2023,06:42:32,0.096,0.0,0.085,0.002
08/05/2023,06:43:32,0.098,0.0,0.087,0.002
08/05/2023,06:44:31,0.098,0.0,0.088,0.001
08/05/2023,06:45:31,0.099,0.0,0.09,0.002
08/05/2023,06:46:31,0.100,0.0,0.091,0.001
08/05/2023,06:47:31,0.100,0.0,0.093,0.002
08/05/2023,06:48:54,0.102,0.0,0.095,0.002
08/05/2023,06:50:31,0.103,0.0,0.098,0.003
08/05/2023,06:51:31,0.104,0.0,0.1,0.002
08/05/2023,06:52:32,0.105,0.0,0.102,0.002
08/05/2023,06:53:31,0.105,0.0,0.103,0.001
08/05/2023,06:54:31,0.106,0.0,0.105,0.002
08/05/2023,06:55:32,0.108,0.0,0.107,0.002
08/05/2023,06:56:31,0.109,0.0,0.109,0.002
08/05/2023,06:57:31,0.111,0.0,0.111,0.002
08/05/2023,06:58:31,0.113,0.0,0.112,0.001
08/05/2023,06:59:31,0.116,0.0,0.114,0.002
08/05/2023,07:00:31,0.117,0.0,0.116,0.002
08/05/2023,07:01:31,0.120,0.0,0.118,0.002
08/05/2023,07:02:32,0.121,0.0,0.12,0.002
08/05/2023,07:03:32,0.123,0.0,0.122,0.002
08/05/2023,07:04:31,0.123,0.0,0.124,0.002
08/05/2023,07:05:31,0.125,0.0,0.127,0.003
08/05/2023,07:06:31,0.126,0.0,0.129,0.002
08/05/2023,07:07:31,0.127,0.0,0.131,0.002
08/05/2023,07:08:32,0.128,0.0,0.133,0.002
08/05/2023,07:09:31,0.127,0.0,0.135,0.002
08/05/2023,07:10:31,0.128,0.0,0.137,0.002
08/05/2023,07:11:31,0.128,0.0,0.139,0.002
08/05/2023,07:12:32,0.129,0.0,0.141,0.002
08/05/2023,07:13:30,0.130,0.0,0.144,0.003
08/05/2023,07:14:32,0.132,0.0,0.146,0.002
08/05/2023,07:15:31,0.134,0.0,0.148,0.002
08/05/2023,07:16:31,0.135,0.0,0.15,0.002
08/05/2023,07:17:31,0.134,0.0,0.152,0.002
08/05/2023,07:18:32,0.132,0.0,0.155,0.003
08/05/2023,07:19:32,0.132,0.0,0.157,0.002
08/05/2023,07:20:31,0.130,0.0,0.159,0.002
08/05/2023,07:21:32,0.133,0.0,0.161,0.002
08/05/2023,07:22:32,0.137,0.0,0.164,0.003
08/05/2023,07:23:32,0.140,0.0,0.166,0.002
08/05/2023,07:24:31,0.143,0.0,0.168,0.002
08/05/2023,07:25:31,0.144,0.0,0.171,0.003
08/05/2023,07:26:31,0.148,0.0,0.173,0.002
08/05/2023,07:27:32,0.153,0.0,0.176,0.003
08/05/2023,07:28:31,0.157,0.0,0.178,0.002
08/05/2023,07:29:32,0.160,0.0,0.181,0.003
08/05/2023,07:30:32,0.167,0.0,0.183,0.002
08/05/2023,07:31:32,0.170,0.0,0.186,0.003
08/05/2023,07:32:32,0.172,0.0,0.189,0.003
08/05/2023,07:33:32,0.179,0.0,0.192,0.003
08/05/2023,07:34:32,0.183,0.0,0.195,0.003
08/05/2023,07:35:32,0.184,0.0,0.198,0.003
08/05/2023,07:36:32,0.185,0.0,0.201,0.003
08/05/2023,07:37:32,0.192,0.0,0.204,0.003
08/05/2023,07:38:31,0.196,0.0,0.208,0.004
08/05/2023,07:39:32,0.199,0.0,0.211,0.003
08/05/2023,07:40:32,0.202,0.0,0.214,0.003
08/05/2023,07:41:31,0.206,0.0,0.218,0.004
08/05/2023,07:42:32,0.209,0.0,0.221,0.003
08/05/2023,07:43:31,0.213,0.0,0.225,0.004
08/05/2023,07:44:31,0.215,0.0,0.228,0.003
08/05/2023,07:45:32,0.217,0.0,0.232,0.004
08/05/2023,07:46:32,0.219,1.0,0.235,0.003
08/05/2023,07:47:31,0.218,1.0,0.239,0.004
08/05/2023,07:48:32,0.210,0.0,0.243,0.004
08/05/2023,07:49:32,0.186,0.0,0.246,0.003
08/05/2023,07:50:31,0.182,0.0,0.249,0.003
08/05/2023,07:51:31,0.199,0.0,0.252,0.003
08/05/2023,07:52:31,0.186,0.0,0.255,0.003
08/05/2023,07:53:31,0.153,0.0,0.258,0.003
08/05/2023,07:54:31,0.148,0.0,0.261,0.003
08/05/2023,07:55:32,0.160,0.0,0.263,0.002
08/05/2023,07:56:33,0.146,0.0,0.266,0.003
08/05/2023,07:57:32,0.146,0.0,0.268,0.002
08/05/2023,07:58:31,0.163,0.0,0.271,0.003
08/05/2023,07:59:31,0.194,0.0,0.274,0.003
08/05/2023,08:00:31,0.231,1.0,0.277,0.003
08/05/2023,08:01:32,0.240,1.0,0.281,0.004
08/05/2023,08:02:32,0.236,1.0,0.285,0.004
08/05/2023,08:03:31,0.227,1.0,0.289,0.004
08/05/2023,08:04:31,0.218,1.0,0.293,0.004
08/05/2023,08:05:32,0.211,0.0,0.296,0.003
08/05/2023,08:06:31,0.193,0.0,0.3,0.004
08/05/2023,08:07:31,0.171,0.0,0.303,0.003
08/05/2023,08:08:32,0.167,0.0,0.306,0.003
08/05/2023,08:09:31,0.149,0.0,0.308,0.002
08/05/2023,08:10:31,0.143,0.0,0.311,0.003
08/05/2023,08:11:31,0.131,0.0,0.313,0.002
08/05/2023,08:12:31,0.125,0.0,0.315,0.002
08/05/2023,08:13:31,0.117,0.0,0.317,0.002
08/05/2023,08:14:31,0.117,0.0,0.319,0.002
08/05/2023,08:15:32,0.123,0.0,0.321,0.002
08/05/2023,08:16:32,0.129,0.0,0.323,0.002
08/05/2023,08:17:32,0.126,0.0,0.325,0.002
08/05/2023,08:18:32,0.122,0.0,0.327,0.002
08/05/2023,08:19:31,0.128,0.0,0.329,0.002
08/05/2023,08:20:32,0.140,0.0,0.332,0.003
08/05/2023,08:21:32,0.147,0.0,0.334,0.002
08/05/2023,08:22:32,0.136,0.0,0.336,0.002
08/05/2023,08:23:32,0.137,0.0,0.339,0.003
08/05/2023,08:24:32,0.160,0.0,0.341,0.002
08/05/2023,08:25:31,0.180,0.0,0.344,0.003
08/05/2023,08:26:31,0.195,0.0,0.347,0.003
08/05/2023,08:27:32,0.215,0.0,0.351,0.004
08/05/2023,08:28:32,0.241,1.0,0.354,0.003
08/05/2023,08:29:32,0.230,1.0,0.358,0.004
08/05/2023,08:30:32,0.209,0.0,0.362,0.004
08/05/2023,08:31:32,0.190,0.0,0.365,0.003
08/05/2023,08:32:32,0.175,0.0,0.368,0.003
08/05/2023,08:33:32,0.168,0.0,0.371,0.003
08/05/2023,08:34:31,0.167,0.0,0.374,0.003
08/05/2023,08:35:54,0.158,0.0,0.378,0.004
08/05/2023,08:37:31,0.154,0.0,0.382,0.004
08/05/2023,08:38:32,0.167,0.0,0.385,0.003
08/05/2023,08:39:32,0.169,0.0,0.387,0.002
08/05/2023,08:40:32,0.166,0.0,0.39,0.003
08/05/2023,08:41:31,0.167,0.0,0.393,0.003
08/05/2023,08:42:32,0.173,0.0,0.396,0.003
08/05/2023,08:43:31,0.182,0.0,0.399,0.003
08/05/2023,08:44:32,0.188,0.0,0.402,0.003
08/05/2023,08:45:31,0.186,0.0,0.405,0.003
08/05/2023,08:46:32,0.210,0.0,0.408,0.003
08/05/2023,08:47:32,0.219,1.0,0.412,0.004
08/05/2023,08:48:32,0.207,0.0,0.415,0.003
08/05/2023,08:49:31,0.203,0.0,0.419,0.004
08/05/2023,08:50:32,0.203,0.0,0.422,0.003
08/05/2023,08:51:31,0.204,0.0,0.426,0.004
08/05/2023,08:52:32,0.223,1.0,0.429,0.003
08/05/2023,08:53:33,0.219,1.0,0.433,0.004
08/05/2023,08:54:32,0.234,1.0,0.437,0.004
08/05/2023,08:55:31,0.226,1.0,0.44,0.003
08/05/2023,08:56:31,0.249,1.0,0.444,0.004
08/05/2023,08:57:31,0.263,1.0,0.449,0.005
08/05/2023,08:58:32,0.255,1.0,0.453,0.004
08/05/2023,08:59:32,0.254,1.0,0.457,0.004
08/05/2023,09:00:31,0.275,1.0,0.462,0.005
08/05/2023,09:01:32,0.266,1.0,0.466,0.004
08/05/2023,09:02:32,0.271,1.0,0.471,0.005
08/05/2023,09:03:32,0.271,1.0,0.475,0.004
08/05/2023,09:04:32,0.304,1.0,0.48,0.005
08/05/2023,09:05:31,0.313,1.0,0.485,0.005
08/05/2023,09:06:32,0.296,1.0,0.49,0.005
08/05/2023,09:07:31,0.306,1.0,0.495,0.005
08/05/2023,09:08:32,0.334,1.0,0.5,0.005
08/05/2023,09:09:32,0.361,1.0,0.506,0.006
08/05/2023,09:10:32,0.393,1.0,0.513,0.007
08/05/2023,09:11:31,0.402,1.0,0.519,0.006
08/05/2023,09:12:31,0.448,1.0,0.526,0.007
08/05/2023,09:13:32,0.499,1.0,0.534,0.008
08/05/2023,09:14:32,0.508,1.0,0.543,0.009
08/05/2023,09:15:31,0.522,1.0,0.551,0.008
08/05/2023,09:16:31,0.513,1.0,0.56,0.009
08/05/2023,09:17:31,0.500,1.0,0.568,0.008
08/05/2023,09:18:31,0.501,1.0,0.577,0.009
08/05/2023,09:19:32,0.472,1.0,0.585,0.008
08/05/2023,09:20:32,0.419,1.0,0.592,0.007
08/05/2023,09:21:32,0.377,1.0,0.599,0.007
08/05/2023,09:22:32,0.343,1.0,0.605,0.006
08/05/2023,09:23:31,0.347,1.0,0.611,0.006
08/05/2023,09:24:31,0.341,1.0,0.616,0.005
08/05/2023,09:25:32,0.330,1.0,0.622,0.006
08/05/2023,09:26:31,0.377,1.0,0.628,0.006
08/05/2023,09:27:32,0.372,1.0,0.634,0.006
08/05/2023,09:28:32,0.341,1.0,0.64,0.006
08/05/2023,09:29:32,0.383,1.0,0.646,0.006
08/05/2023,09:30:31,0.374,1.0,0.652,0.006
08/05/2023,09:31:32,0.366,1.0,0.658,0.006
08/05/2023,09:32:32,0.346,1.0,0.664,0.006
08/05/2023,09:33:31,0.348,1.0,0.67,0.006
08/05/2023,09:34:31,0.368,1.0,0.676,0.006
08/05/2023,09:35:32,0.374,1.0,0.682,0.006
08/05/2023,09:36:32,0.352,1.0,0.688,0.006
08/05/2023,09:37:32,0.361,1.0,0.694,0.006
08/05/2023,09:38:32,0.303,1.0,0.7,0.006
08/05/2023,09:39:32,0.353,1.0,0.705,0.005
08/05/2023,09:40:32,0.349,1.0,0.711,0.006
08/05/2023,09:41:32,0.358,1.0,0.717,0.006
08/05/2023,09:42:32,0.367,1.0,0.723,0.006
08/05/2023,09:43:32,0.361,1.0,0.729,0.006
08/05/2023,09:44:32,0.369,1.0,0.735,0.006
08/05/2023,09:45:31,0.407,1.0,0.741,0.006
08/05/2023,09:46:31,0.425,1.0,0.748,0.007
08/05/2023,09:47:54,0.441,1.0,0.758,0.01
08/05/2023,09:49:32,0.452,1.0,0.77,0.012
08/05/2023,09:50:32,0.452,1.0,0.778,0.008
08/05/2023,09:51:31,0.450,1.0,0.785,0.007
08/05/2023,09:52:32,0.555,1.0,0.794,0.009
08/05/2023,09:53:32,0.550,1.0,0.803,0.009
08/05/2023,09:54:32,0.578,1.0,0.812,0.009
08/05/2023,09:55:32,0.590,1.0,0.822,0.01
08/05/2023,09:56:32,0.584,1.0,0.832,0.01
08/05/2023,09:57:32,0.586,1.0,0.842,0.01
08/05/2023,09:58:32,0.536,1.0,0.851,0.009
08/05/2023,09:59:34,0.517,1.0,0.86,0.009
08/05/2023,10:00:32,0.530,1.0,0.869,0.009
08/05/2023,10:01:32,0.531,1.0,0.877,0.008
08/05/2023,10:02:31,0.530,1.0,0.886,0.009
08/05/2023,10:03:32,0.548,1.0,0.895,0.009
08/05/2023,10:04:32,0.537,1.0,0.904,0.009